Location: Unspecified
(0.0000°N, 0.0000°E)
Time: 15:41:06
(UTC+00:00)

Transit 4A - All Passes

Search period start: 12 April 2021 00:00
Search period end: 22 April 2021 00:00
Orbit: 869 x 976 km, 66.8° (Epoch: 11 April)

Date Brightness Start Highest point End Pass type
(mag) Time Alt. Az. Time Alt. Az. Time Alt. Az.
12 Apr - 01:17:38 10° W 01:19:35 11° WNW 01:21:32 10° NW night (unlit)
12 Apr - 10:40:42 10° NNE 10:44:54 21° ENE 10:49:06 10° ESE daylight
12 Apr - 12:26:00 10° NW 12:30:56 29° WSW 12:35:56 10° S daylight
12 Apr - 23:36:20 10° SSW 23:42:43 82° WNW 23:49:04 10° NNE night (unlit)
13 Apr - 10:48:54 10° N 10:54:09 36° ENE 10:59:26 10° SE daylight
13 Apr - 12:36:40 10° WNW 12:40:13 17° WSW 12:43:49 10° SSW daylight
13 Apr - 22:02:27 10° SE 22:05:50 15° ESE 22:09:12 10° ENE night (unlit)
13 Apr - 23:45:52 10° SW 23:51:59 49° WNW 23:58:03 10° N night (unlit)
14 Apr - 10:57:40 10° N 11:03:23 64° ENE 11:09:10 10° SSE daylight
14 Apr - 22:10:01 10° SSE 22:15:09 26° ESE 22:20:14 10° NE night (unlit)
14 Apr - 23:55:51 10° SW 00:01:15 29° WNW 00:06:36 10° NNW night (unlit)
15 Apr - 11:06:51 10° NNW 11:12:38 74° WSW 11:18:28 10° SSE daylight
15 Apr - 22:18:26 10° S 22:24:26 43° ESE 22:30:22 10° NE night (unlit)
16 Apr - 00:06:36 10° WSW 00:10:31 17° WNW 00:14:26 10° NNW night (unlit)
16 Apr - 09:32:55 10° NE 09:35:50 14° ENE 09:38:45 10° E daylight
16 Apr - 11:16:27 10° NW 11:21:53 42° WSW 11:27:23 10° S daylight
16 Apr - 22:27:19 10° SSW 22:33:42 73° ESE 22:40:00 10° NNE night (unlit)
17 Apr - 09:40:27 10° NNE 09:45:06 25° ENE 09:49:48 10° SE daylight
17 Apr - 11:26:35 10° WNW 11:31:09 24° WSW 11:35:46 10° SSW daylight
17 Apr - 22:36:37 10° SSW 22:42:58 69° WNW 22:49:14 10° NNE night (unlit)
18 Apr - 09:48:53 10° N 09:54:21 44° ENE 09:59:52 10° SE daylight
18 Apr - 11:37:44 10° W 11:40:27 13° WSW 11:43:11 10° SW daylight
18 Apr - 21:01:55 10° SSE 21:06:06 18° ESE 21:10:13 10° ENE night (unlit)
18 Apr - 22:46:18 10° SW 22:52:13 40° WNW 22:58:04 10° N night (unlit)
19 Apr - 09:57:48 10° NNW 10:03:35 78° ENE 10:09:26 10° SSE daylight
19 Apr - 21:09:52 10° S 21:15:23 31° ESE 21:20:50 10° NE night (unlit)
19 Apr - 22:56:30 10° WSW 23:01:29 24° WNW 23:06:25 10° NNW night (unlit)
20 Apr - 10:07:09 10° NNW 10:12:50 61° WSW 10:18:36 10° S daylight
20 Apr - 21:18:29 10° S 21:24:40 52° ESE 21:30:46 10° NE night (unlit)
20 Apr - 23:07:45 10° W 23:10:46 14° WNW 23:13:46 10° NW night (unlit)
21 Apr - 08:32:19 10° NNE 08:36:03 17° ENE 08:39:47 10° ESE daylight
21 Apr - 10:16:54 10° NW 10:22:05 34° WSW 10:27:21 10° S daylight
21 Apr - 21:27:31 10° SSW 21:33:56 86° ESE 21:40:15 10° NNE night (unlit)
